OPS 7218 (TRANSIT 16) 1 2807U 67048A 25174.80105647 .00000119 00000-0 16964-3 0 9992 2 2807 89.6738 359.6294 0018265 251.6109 119.2499 13.50678711860046 OPS 4947 (TRANSIT 17) 1 02965U 67092A 25174.35468852 .00000121 00000-0 16190-3 0 9990 2 02965 89.2429 37.6051 0048488 18.9279 155.4900 13.53408028847656 OPS 7034 (TRANSIT 18) 1 03133U 68012A 25174.56793874 .00000089 00000-0 12105-3 0 9994 2 03133 90.0270 273.2309 0072128 310.2850 60.1721 13.51520177545930 NNSS 19 (TRANSIT 19) 1 04507U 70067A 25174.46504808 .00000078 00000-0 93840-4 0 9993 2 04507 89.9929 234.5596 0174116 72.5805 289.4299 13.51260629698950 NNSS 20 (TRANSIT 20) 1 06909U 73081A 25174.49287356 .00000168 00000-0 16258-3 0 9996 2 06909 89.8489 257.7726 0153199 234.2158 124.4683 13.71354538780004 TRANSAT 1 10457U 77106A 25174.49570047 .00000061 00000-0 81829-4 0 9992 2 10457 89.6483 84.7676 0024748 335.1020 198.7347 13.48913910344216 NOVA 1 1 12458U 81044A 25174.50588877 .00000037 00000-0 66500-4 0 9995 2 12458 89.8568 93.8592 0012698 212.7519 322.1458 13.23251803129088 NOVA 3 1 15362U 84110A 25174.50265502 .00000071 00000-0 14843-3 0 9996 2 15362 90.1218 78.5859 0033690 84.0115 92.4190 13.23020391964213 OSCAR 30 1 15935U 85066A 25174.51593095 .00000064 00000-0 10023-3 0 9993 2 15935 90.1720 97.0495 0166496 209.1341 326.1967 13.36041128941535 OSCAR 24 1 15936U 85066B 25174.55701203 .00000051 00000-0 77922-4 0 9998 2 15936 90.1829 89.3066 0167293 215.4749 319.7935 13.35901598943442 POLAR BEAR 1 17070U 86088A 25172.34454248 .00000090 00000-0 82062-4 0 9997 2 17070 89.6141 190.7226 0037171 287.8026 83.2168 13.75209330935823 OSCAR 27 1 18361U 87080A 25174.45836716 .00000072 00000-0 10669-3 0 9995 2 18361 90.3721 72.9186 0104219 359.2928 0.8056 13.44868082852414 OSCAR 29 1 18362U 87080B 25173.46582785 .00000056 00000-0 79205-4 0 9994 2 18362 90.3734 73.3259 0106672 24.5923 148.4646 13.44415886851814 OSCAR 23 1 19070U 88033A 25174.77298434 .00000087 00000-0 16205-3 0 9994 2 19070 90.3159 11.0330 0187762 299.0266 71.8910 13.27757519799984 OSCAR 32 1 19071U 88033B 25173.49131402 .00000065 00000-0 11927-3 0 9996 2 19071 90.3163 11.1172 0186082 289.5197 84.7422 13.27924394799669 NOVA 2 1 19223U 88052A 25174.18450750 .00000057 00000-0 11337-3 0 9999 2 19223 89.9861 78.5674 0031816 126.4704 27.4173 13.22913759786669 OSCAR 25 1 19419U 88074A 25174.80347539 .00000088 00000-0 13534-3 0 9994 2 19419 90.0281 19.6756 0096785 18.0746 353.6300 13.42587372803600 OSCAR 31 1 19420U 88074B 25174.33478752 .00000084 00000-0 12959-3 0 9992 2 19420 90.0297 19.9968 0094880 13.6334 160.1440 13.42553807803371